Location: Beugnon
(47.6222°N, 3.7850°E)
Time: 07:23:19
(UTC+00:00)

COSMOS 2406 - Visible Passes

Search period start: 11 August 2020 00:00
Search period end: 21 August 2020 00:00
Orbit: 844 x 863 km, 71.0° (Epoch: 10 August)

Date Brightness Start Highest point End Pass type
(mag) Time Alt. Az. Time Alt. Az. Time Alt. Az.
11 Aug 6.4 02:34:20 10° N 02:37:01 13° NNE 02:39:42 10° ENE visible
11 Aug 5.2 20:59:07 10° WSW 21:04:09 30° NW 21:09:11 10° NNE visible
12 Aug 6.4 02:22:51 10° N 02:25:34 13° NNE 02:28:16 10° ENE visible
12 Aug 5.3 20:47:41 10° WSW 20:52:41 30° NW 20:57:42 10° NNE visible
13 Aug 6.5 02:11:22 10° N 02:14:07 13° NNE 02:16:51 10° ENE visible
13 Aug 4.3 03:54:17 10° NNW 03:59:52 51° ENE 04:05:22 10° SE visible
13 Aug 5.3 20:36:14 10° WSW 20:41:13 30° NW 20:46:13 10° NNE visible
14 Aug 6.5 01:59:52 10° N 02:02:39 14° NNE 02:05:26 10° ENE visible
14 Aug 4.2 03:42:49 10° NNW 03:48:24 52° ENE 03:53:54 10° SE visible
14 Aug 5.4 20:24:47 10° WSW 20:29:45 29° NW 20:34:44 10° NNE visible
15 Aug 6.4 01:48:22 10° N 01:51:12 14° NNE 01:54:00 10° ENE visible
15 Aug 4.2 03:31:20 10° NNW 03:36:55 52° ENE 03:42:27 10° SE visible
15 Aug 5.4 20:13:20 10° WSW 20:18:17 29° NW 20:23:15 10° NNE visible
16 Aug 6.4 01:36:53 10° N 01:39:44 14° NNE 01:42:34 10° ENE visible
16 Aug 4.1 03:19:52 10° NNW 03:25:27 53° ENE 03:30:58 10° SE visible
16 Aug 5.5 20:01:53 10° WSW 20:06:49 29° NW 20:11:46 10° NNE visible
17 Aug 6.3 01:25:23 10° N 01:28:16 14° NE 01:31:09 10° ENE visible
17 Aug 4.1 03:08:23 10° NNW 03:13:58 53° ENE 03:19:31 10° SE visible
17 Aug 5.5 19:50:25 10° WSW 19:55:21 29° NW 20:00:17 10° NNE visible
18 Aug 6.2 01:13:53 10° N 01:16:48 14° NE 01:19:43 10° ENE visible
18 Aug 4.0 02:56:54 10° NNW 03:02:30 54° ENE 03:08:02 10° SE visible
18 Aug 5.6 19:38:58 10° WSW 19:43:53 28° NW 19:48:47 10° NNE visible
19 Aug 6.2 01:02:23 10° N 01:05:20 14° NE 01:08:17 10° ENE visible
19 Aug 4.0 02:45:25 10° NNW 02:51:01 55° ENE 02:56:34 10° SE visible
19 Aug 5.6 19:27:31 10° WSW 19:32:24 28° NW 19:37:18 10° N visible
20 Aug 6.1 00:50:53 10° N 00:53:52 14° NE 00:56:51 10° ENE visible
20 Aug 3.9 02:33:56 10° NNW 02:39:32 55° ENE 02:45:06 10° SE visible
20 Aug 5.6 19:16:04 10° WSW 19:20:56 28° NW 19:25:49 10° N visible
